• In Hungary
  • List of Countries
  • For 7 days
  • Water Temperature
  • Satellite Maps
  • Weather Map
  • News
  • Weather Widgets
  • user-avatar
    Login

    Hourly Weather Kozani

    Today, 15 November, Thursday

    Time Temperature Precipitation Wind Pressure Humidity
    00:00 +7°C° 0 mm 2 mps 707 mmHg 79%
    01:00 +6°C° 0 mm 2 mps 707 mmHg 79%
    02:00 +6°C° 0 mm 2 mps 707 mmHg 79%
    03:00 +5°C° 0 mm 2 mps 707 mmHg 80%
    04:00 +5°C° 0 mm 2 mps 706 mmHg 80%
    05:00 +5°C° 0 mm 2 mps 707 mmHg 80%
    06:00 +5°C° 0 mm 2 mps 707 mmHg 80%
    07:00 +5°C° 0 mm 2 mps 707 mmHg 79%
    08:00 +7°C° 0 mm 3 mps 707 mmHg 69%
    09:00 +9°C° 0 mm 3 mps 707 mmHg 59%
    10:00 +11°C° 0 mm 3 mps 707 mmHg 49%
    11:00 +11°C° 0 mm 3 mps 707 mmHg 45%
    12:00 +12°C° 0 mm 3 mps 707 mmHg 41%
    13:00 +12°C° 0 mm 3 mps 707 mmHg 39%
    14:00 +12°C° 0 mm 2 mps 707 mmHg 42%
    15:00 +10°C° 0 mm 2 mps 707 mmHg 45%
    16:00 +9°C° 0 mm 2 mps 707 mmHg 49%
    17:00 +9°C° 0 mm 1 mps 707 mmHg 52%
    18:00 +8°C° 0 mm 1 mps 707 mmHg 55%
    19:00 +7°C° 0 mm 1 mps 707 mmHg 58%
    20:00 +7°C° 0 mm 1 mps 707 mmHg 60%
    21:00 +6°C° 0 mm 1 mps 707 mmHg 62%
    22:00 +6°C° 0 mm 1 mps 707 mmHg 63%
    23:00 +6°C° 0 mm 1 mps 707 mmHg 65%

    Tomorrow, 16 November, Friday

    Time Temperature Precipitation Wind Pressure Humidity
    00:00 +6°C° 0 mm 1 mps 707 mmHg 66%
    01:00 +5°C° 0 mm 1 mps 707 mmHg 68%
    02:00 +5°C° 0 mm 1 mps 707 mmHg 70%
    03:00 +5°C° 0 mm 1 mps 707 mmHg 71%
    04:00 +5°C° 0 mm 1 mps 707 mmHg 73%
    05:00 +5°C° 0 mm 1 mps 707 mmHg 74%
    06:00 +5°C° 0 mm 1 mps 707 mmHg 75%
    07:00 +5°C° 0 mm 1 mps 707 mmHg 76%
    08:00 +6°C° 0.2 mm 1 mps 707 mmHg 71%
    09:00 +6°C° 0.2 mm 2 mps 708 mmHg 67%
    10:00 +7°C° 0.2 mm 2 mps 708 mmHg 62%
    11:00 +7°C° 0.7 mm 2 mps 707 mmHg 63%
    12:00 +7°C° 0.7 mm 2 mps 707 mmHg 64%
    13:00 +7°C° 0.7 mm 2 mps 707 mmHg 65%
    14:00 +6°C° 1.1 mm 2 mps 707 mmHg 71%
    15:00 +6°C° 1.1 mm 2 mps 707 mmHg 76%
    16:00 +5°C° 1.1 mm 2 mps 707 mmHg 82%
    17:00 +5°C° 1 mm 2 mps 707 mmHg 84%
    18:00 +5°C° 1 mm 1 mps 707 mmHg 86%
    19:00 +5°C° 1 mm 1 mps 707 mmHg 89%
    20:00 +5°C° 1.1 mm 1 mps 708 mmHg 90%
    21:00 +5°C° 1.1 mm 1 mps 708 mmHg 90%
    22:00 +5°C° 1.1 mm 1 mps 708 mmHg 91%
    23:00 +4°C° 0.9 mm 2 mps 708 mmHg 92%

    Day after tomorrow, 17 November, Saturday

    Time Temperature Precipitation Wind Pressure Humidity
    00:00 +4°C° 0.9 mm 2 mps 708 mmHg 92%
    01:00 +4°C° 0.9 mm 2 mps 708 mmHg 93%
    02:00 +4°C° 0.6 mm 2 mps 707 mmHg 93%
    03:00 +4°C° 0.6 mm 2 mps 707 mmHg 93%
    04:00 +4°C° 0.6 mm 2 mps 707 mmHg 93%
    05:00 +4°C° 0.4 mm 2 mps 707 mmHg 92%
    06:00 +3°C° 0.4 mm 2 mps 707 mmHg 92%
    07:00 +3°C° 0.4 mm 2 mps 707 mmHg 91%
    08:00 +4°C° 0.8 mm 2 mps 707 mmHg 90%
    09:00 +4°C° 0.8 mm 2 mps 707 mmHg 89%
    10:00 +4°C° 0.8 mm 2 mps 708 mmHg 87%
    11:00 +4°C° 0.6 mm 2 mps 707 mmHg 87%
    12:00 +4°C° 0.6 mm 2 mps 707 mmHg 86%
    13:00 +4°C° 0.6 mm 2 mps 706 mmHg 85%
    14:00 +4°C° 0.3 mm 2 mps 706 mmHg 85%
    15:00 +4°C° 0.3 mm 2 mps 706 mmHg 85%
    16:00 +4°C° 0.3 mm 2 mps 706 mmHg 85%
    17:00 +3°C° 0.4 mm 2 mps 706 mmHg 86%
    18:00 +3°C° 0.4 mm 2 mps 706 mmHg 87%
    19:00 +3°C° 0.4 mm 2 mps 706 mmHg 87%
    20:00 +3°C° 0.4 mm 2 mps 706 mmHg 87%
    21:00 +3°C° 0.4 mm 2 mps 707 mmHg 87%
    22:00 +3°C° 0.4 mm 2 mps 707 mmHg 87%
    23:00 +2°C° 0.2 mm 2 mps 706 mmHg 87%

    18 November, Sunday

    Time Temperature Precipitation Wind Pressure Humidity
    00:00 +2°C° 0.2 mm 2 mps 706 mmHg 87%
    01:00 +2°C° 0.2 mm 2 mps 706 mmHg 87%
    02:00 +3°C° 0.1 mm 1 mps 706 mmHg 87%
    03:00 +3°C° 0.1 mm 1 mps 705 mmHg 87%
    04:00 +3°C° 0.1 mm 1 mps 705 mmHg 87%
    05:00 +3°C° 0.3 mm 1 mps 705 mmHg 87%
    06:00 +3°C° 0.3 mm 1 mps 705 mmHg 87%
    07:00 +3°C° 0.3 mm 1 mps 705 mmHg 87%
    08:00 +4°C° 0.3 mm 1 mps 705 mmHg 86%
    09:00 +4°C° 0.3 mm 1 mps 705 mmHg 85%
    10:00 +4°C° 0.3 mm 2 mps 705 mmHg 84%
    11:00 +4°C° 0.1 mm 2 mps 704 mmHg 83%
    12:00 +5°C° 0.1 mm 2 mps 704 mmHg 83%
    13:00 +5°C° 0.1 mm 2 mps 703 mmHg 82%
    14:00 +5°C° 0.3 mm 2 mps 703 mmHg 84%
    15:00 +5°C° 0.3 mm 2 mps 702 mmHg 85%
    16:00 +5°C° 0.3 mm 1 mps 702 mmHg 86%
    17:00 +5°C° 1.3 mm 1 mps 702 mmHg 87%
    18:00 +5°C° 1.3 mm 1 mps 701 mmHg 88%
    19:00 +5°C° 1.3 mm 1 mps 701 mmHg 90%
    20:00 +5°C° 1.7 mm 1 mps 701 mmHg 90%
    21:00 +5°C° 1.7 mm 1 mps 701 mmHg 91%
    22:00 +5°C° 1.7 mm 1 mps 700 mmHg 92%
    23:00 +5°C° 1 mm 1 mps 700 mmHg 92%

    19 November, Monday

    Time Temperature Precipitation Wind Pressure Humidity
    00:00 +5°C° 1 mm 1 mps 700 mmHg 92%
    01:00 +5°C° 1 mm 1 mps 699 mmHg 92%
    02:00 +5°C° 0.8 mm 1 mps 699 mmHg 92%
    03:00 +5°C° 0.8 mm 1 mps 699 mmHg 93%
    04:00 +5°C° 0.8 mm 1 mps 698 mmHg 93%
    05:00 +5°C° 0.3 mm 1 mps 698 mmHg 93%
    06:00 +5°C° 0.3 mm 1 mps 699 mmHg 92%
    07:00 +4°C° 0.3 mm 0 mps 699 mmHg 92%
    08:00 +6°C° 0.1 mm 1 mps 699 mmHg 91%
    09:00 +7°C° 0.1 mm 1 mps 699 mmHg 89%
    10:00 +8°C° 0.1 mm 1 mps 699 mmHg 88%
    11:00 +8°C° 0 mm 1 mps 699 mmHg 87%
    12:00 +9°C° 0 mm 1 mps 699 mmHg 87%
    13:00 +9°C° 0 mm 2 mps 699 mmHg 86%
    14:00 +9°C° 0 mm 1 mps 699 mmHg 89%
    15:00 +9°C° 0 mm 1 mps 699 mmHg 91%
    16:00 +8°C° 0 mm 1 mps 699 mmHg 93%
    17:00 +8°C° 0.1 mm 1 mps 699 mmHg 94%
    18:00 +8°C° 0.1 mm 1 mps 699 mmHg 94%
    19:00 +8°C° 0.1 mm 1 mps 700 mmHg 95%
    20:00 +8°C° 0.3 mm 1 mps 700 mmHg 95%
    21:00 +8°C° 0.3 mm 1 mps 700 mmHg 95%
    22:00 +8°C° 0.3 mm 1 mps 701 mmHg 95%
    23:00 +8°C° 0.5 mm 1 mps 701 mmHg 95%

    20 November, Tuesday

    Time Temperature Precipitation Wind Pressure Humidity
    00:00 +8°C° 0.5 mm 1 mps 701 mmHg 95%
    01:00 +8°C° 0.5 mm 1 mps 701 mmHg 95%
    02:00 +8°C° 0.2 mm 1 mps 700 mmHg 95%
    03:00 +8°C° 0.2 mm 1 mps 700 mmHg 95%
    04:00 +8°C° 0.2 mm 1 mps 700 mmHg 95%
    05:00 +8°C° 0.2 mm 1 mps 700 mmHg 95%
    06:00 +8°C° 0.2 mm 1 mps 700 mmHg 94%
    07:00 +8°C° 0.2 mm 1 mps 700 mmHg 94%
    08:00 +9°C° 0.3 mm 1 mps 701 mmHg 92%
    09:00 +9°C° 0.3 mm 2 mps 701 mmHg 90%
    10:00 +10°C° 0.3 mm 2 mps 701 mmHg 87%
    11:00 +10°C° 0.9 mm 2 mps 701 mmHg 87%
    12:00 +12°C° 0.9 mm 2 mps 700 mmHg 87%
    13:00 +12°C° 0.9 mm 2 mps 700 mmHg 87%
    14:00 +12°C° 0.1 mm 2 mps 700 mmHg 88%
    15:00 +10°C° 0.1 mm 2 mps 700 mmHg 89%
    16:00 +10°C° 0.1 mm 2 mps 699 mmHg 90%
    17:00 +10°C° 0 mm 2 mps 699 mmHg 91%
    18:00 +10°C° 0 mm 2 mps 699 mmHg 91%
    19:00 +9°C° 0 mm 2 mps 699 mmHg 92%
    20:00 +9°C° 0.3 mm 2 mps 698 mmHg 92%
    21:00 +9°C° 0.3 mm 2 mps 698 mmHg 92%
    22:00 +9°C° 0.3 mm 2 mps 698 mmHg 92%
    23:00 +9°C° 0.8 mm 2 mps 698 mmHg 93%
    Show more